Location: Feudal
(51.8839°N, 107.6105°W)
Time: 11:54:27
(UTC+00:00)

Envisat - Visible Passes

Search period start: 20 January 2022 00:00
Search period end: 30 January 2022 00:00
Orbit: 764 x 766 km, 98.2° (Epoch: 20 January)

Date Brightness Start Highest point End Pass type
(mag) Time Alt. Az. Time Alt. Az. Time Alt. Az.
20 Jan 4.6 11:23:56 10° NNE 11:28:27 31° E 11:32:57 10° SSE visible
20 Jan 3.2 13:02:47 10° N 13:07:38 45° WNW 13:12:26 10° SW visible
21 Jan 5.8 00:24:32 10° SW 00:28:15 20° W 00:31:59 10° NW visible
21 Jan 5.6 10:48:00 10° NE 10:51:09 16° E 10:54:18 10° SE visible
21 Jan 2.9 12:25:45 10° NNE 12:30:52 85° WNW 12:35:56 10° SSW visible
21 Jan 4.4 14:05:57 10° NNW 14:09:12 17° NW 14:12:25 10° W visible
22 Jan 3.8 11:48:57 10° NNE 11:53:54 49° E 11:58:50 10° S visible
22 Jan 3.7 13:28:21 10° N 13:32:44 30° WNW 13:37:06 10° WSW visible
23 Jan 6.1 00:51:47 10° WSW 00:53:54 12° W 00:56:02 10° WNW visible
23 Jan 5.0 11:12:31 10° NE 11:16:45 26° E 11:20:57 10° SSE visible
23 Jan 3.0 12:51:07 10° N 12:56:06 55° WNW 13:01:02 10° SW visible
24 Jan 5.8 10:37:01 10° ENE 10:39:24 13° E 10:41:46 10° ESE visible
24 Jan 3.0 12:14:09 10° NNE 12:19:16 79° ESE 12:24:21 10° SSW visible
24 Jan 4.2 13:54:04 10° N 13:57:45 20° NW 14:01:24 10° WSW visible
25 Jan 4.2 11:37:26 10° NNE 11:42:15 40° E 11:47:01 10° SSE visible
25 Jan 3.5 13:16:37 10° N 13:21:13 36° WNW 13:25:49 10° SW visible
26 Jan 5.9 00:39:08 10° WSW 00:42:08 16° W 00:45:07 10° NW visible
26 Jan 5.3 11:01:11 10° NE 11:05:02 21° E 11:08:52 10° SE visible
26 Jan 2.9 12:39:28 10° N 12:44:32 67° WNW 12:49:34 10° SSW visible
26 Jan 4.6 14:20:07 10° NNW 14:22:40 14° NW 14:25:12 10° W visible
27 Jan 6.0 10:26:43 10° ENE 10:27:36 10° E 10:28:30 10° E visible
27 Jan 3.3 12:02:34 10° NNE 12:07:39 65° ESE 12:12:41 10° S visible
27 Jan 4.0 13:42:16 10° N 13:46:16 24° WNW 13:50:16 10° WSW visible
28 Jan 4.6 11:25:58 10° NNE 11:30:34 33° E 11:35:08 10° SSE visible
28 Jan 3.3 13:04:55 10° N 13:09:42 43° WNW 13:14:29 10° SW visible
29 Jan 5.8 00:26:48 10° SW 00:30:23 19° W 00:33:59 10° NW visible
29 Jan 5.5 10:49:57 10° NE 10:53:17 17° E 10:56:37 10° SE visible
29 Jan 2.8 12:27:50 10° NNE 12:32:57 81° WNW 12:38:02 10° SSW visible
29 Jan 4.5 14:08:07 10° NNW 14:11:14 17° NW 14:14:19 10° W visible
